This is the latest recevied weather packets stored in our database for station/object C31FR-13. If no packets are shown the sender has not sent any weather packets the latest 10 day(s).
| Time | Temp. | Humidity | Pressure | Rain* | Wind** | Luminosity | Snow |
|---|---|---|---|---|---|---|---|
| 1777630863 | 16.67° C | 72% | 1022.1 hPa | - | - | - | - |
| 1777629962 | 16.11° C | 68% | 1022.2 hPa | - | - | - | - |
| 1777629662 | 16.11° C | 73% | 1022.1 hPa | - | - | - | - |
| 1777629363 | 16.11° C | 65% | 1022.1 hPa | - | - | - | - |
| 1777628762 | 15.56° C | 75% | 1022.3 hPa | - | - | - | - |
| 1777628463 | 15.56° C | 75% | 1022.2 hPa | - | - | - | - |
| 1777627862 | 15.56° C | 78% | 1022.2 hPa | - | - | - | - |
| 1777627563 | 15.56° C | 77% | 1022.3 hPa | - | - | - | - |
| 1777627263 | 15.56° C | 81% | 1022.2 hPa | - | - | - | - |
| 1777626962 | 15.56° C | 79% | 1022.1 hPa | - | - | - | - |
| 1777626662 | 15° C | 71% | 1022.2 hPa | - | - | - | - |
| 1777626362 | 15.56° C | 74% | 1022.2 hPa | - | - | - | - |
| 1777625763 | 15° C | 77% | 1022.2 hPa | - | - | - | - |
| 1777625462 | 14.44° C | 86% | 1022.2 hPa | - | - | - | - |
| 1777625164 | 15° C | 74% | 1022.2 hPa | - | - | - | - |
| 1777624863 | 15° C | 68% | 1022.2 hPa | - | - | - | - |
| 1777624563 | 15° C | 72% | 1022.2 hPa | - | - | - | - |
| 1777624262 | 15° C | 73% | 1022.2 hPa | - | - | - | - |
| 1777623963 | 15° C | 73% | 1022.2 hPa | - | - | - | - |
| 1777623663 | 14.44° C | 72% | 1022.2 hPa | - | - | - | - |
| 1777623363 | 14.44° C | 75% | 1022.2 hPa | - | - | - | - |
| 1777623062 | 14.44° C | 75% | 1022.2 hPa | - | - | - | - |
| 1777622762 | 14.44° C | 74% | 1022.2 hPa | - | - | - | - |
| 1777622463 | 14.44° C | 77% | 1022.2 hPa | - | - | - | - |
| 1777622162 | 14.44° C | 78% | 1022.3 hPa | - | - | - | - |
* Rain since midnight (hover to see other rain measurements)
** Current wind speed in m/s (hover to see current wind gust speed)